Preview of NWS' New Version of Forecast
This preview is not operational and should not be used for support decisions.

Regional Weather Roundup (RWR)

Issued by National Weather Service (NWS)

                            
000
ASUS42 KTBW 221216
RWRFL 
FLORIDA REGIONAL WEATHER ROUNDUP
NATIONAL WEATHER SERVICE TAMPA BAY RUSKIN FL
800 AM EDT WED MAY 22 2019

NOTE: "FAIR" INDICATES FEW OR NO CLOUDS BELOW 12,000 FEET WITH NO
SIGNIFICANT WEATHER AND/OR OBSTRUCTIONS TO VISIBILITY.

FLZ001>010-012>015-112-114-115-221300-
PANHANDLE FLORIDA
  
CITY           SKY/WX    TMP DP  RH WIND       PRES   REMARKS
PENSACOLA      PTSUNNY   78  74  87 S9        30.01R                  
PENSACOLA NAS  PTSUNNY   79  72  79 S10       30.00R                  
MILTON NAS     FAIR      68  68 100 CALM      30.02                   
CRESTVIEW      PTSUNNY   64  62  93 CALM      30.05R FOG              
DUKE FIELD     FAIR      65  65 100 CALM      30.03R                  
VALPARAISO     FAIR      69  66  89 NE3       30.02R                  
MARY ESTHER    MOSUNNY   69  66  90 CALM      30.01R                  
PANAMA CITY    FAIR      70  67  90 CALM      30.03R                  
TYNDALL AFB    FAIR      73  69  88 E5        30.04R                  
APALACHICOLA   FAIR      73  67  81 NE3       30.04R                  

STATION/POSITION SKY/WX   TEMP    WIND        PRES    WAVE   SWELL
                          AIR SEA DIR/SP/G            HT/PER HT/PER
                          (F)     (DEG/KT/KT) (MB)    (FT/S) (FT/S)
30.1N   87.6W                                   N/A     3/ 6
29.2N   88.2W                     150/ 12/ 14 1015.6R   3/ 6   2/ 6
PANAMA CITY BEAC           74 81   60/  6/  7 1017.3R
TOWER C          NOT AVBL

$$
FLZ011-016>038-118-127-128-134-139-239-221300-
NORTH FLORIDA
  
CITY           SKY/WX    TMP DP  RH WIND       PRES   REMARKS
MARIANNA       FAIR      69  63  81 CALM      30.05R                  
TALLAHASSEE    FAIR      71  66  84 CALM      30.06R                  
PERRY          CLOUDY    74  73  93 CALM      30.07R                  
LIVE OAK       MOSUNNY   77  70  78 SE3       30.07R                  
CROSS CITY     FAIR      75  70  85 SE3       30.06R                  
LAKE CITY      FAIR      72  68  88 E3        30.08R                  
GAINESVILLE    FAIR      77  70  79 E3        30.10R                  
WILLISTON      FAIR      74  69  85 CALM      30.07R                  
PALATKA        FAIR     N/A N/A N/A S7        30.07R                  
MAYPORT NAS    FAIR      77  70  79 S8        30.09R                  
JACKSONVILLE   FAIR      77  71  82 SE6       30.08R                  
JAX NAS        FAIR      77  69  76 S8        30.09R                  
JAX CECIL      SUNNY     77  72  83 CALM      30.08R                  
FERNANDINA BEA FAIR      77  70  81 S7        30.09R                  
ST AUGUSTINE   FAIR      76  70  82 S7        30.10R                  
PALM COAST     SUNNY     72  70  94 CALM      30.08                   

STATION/POSITION SKY/WX   TEMP    WIND        PRES    WAVE   SWELL
                          AIR SEA DIR/SP/G            HT/PER HT/PER
                          (F)     (DEG/KT/KT) (MB)    (FT/S) (FT/S)
SHELL POINT      NOT AVBL
KEATON BEACH               74      60/  5/  6 1018.0R
CEDAR KEY                  79     160/  9/ 10 1017.7R
FERNANDINA                 79 82  170/  4/  7 1019.4R
30.7N   81.3W                 79                N/A     3/ 5
MAYPORT                    77 81  170/  4/  7 1019.0R
31.4N   80.9W              78 77  210/ 10/ 12 1018.9R   3/ 4   2/ 6
ST AUGUSTINE               77 80  190/  6/  7 1019.0R

$$
FLZ040-043>046-052-053-057-058-063-144-221300-
INTERIOR CENTRAL FLORIDA
  
CITY           SKY/WX    TMP DP  RH WIND       PRES   REMARKS
OCALA          FAIR      75  69  81 SE5       30.07R                  
LEESBURG       FAIR      76  69  79 SE8       30.08R                  
SANFORD        FAIR      74  70  87 SE5       30.07R                  
ORLANDO EXEC   FAIR      75  68  78 E6        30.07R                  
ORLANDO INTL   FAIR      74  68  81 E6        30.07R                  
KISSIMMEE      FAIR      76  69  79 E6        30.08R                  
WINTER HAVEN   FAIR      76  69  79 E7        30.07R                  
LAKELAND       SUNNY     73  70  88 E3        30.06R                  
BARTOW         SUNNY     73  68  83 E6        30.05R                  
SEBRING        FAIR      71  67  87 E5        30.06R                  
OKEECHOBEE     FAIR      70  66  88 NE5       30.06R                  

$$
FLZ041-047-054-059-064-141-147-221300-
EAST CENTRAL FLORIDA
  
CITY           SKY/WX    TMP DP  RH WIND       PRES   REMARKS
ORMOND BEACH   SUNNY     73  73 100 CALM      30.08R                  
DAYTONA BEACH  FAIR      75  72  90 CALM      30.08R                  
DELAND         FAIR      73  68  83 SE3       30.07S                  
NEW SMYRNA BEA SUNNY     75  68  78 CALM      30.09R                  
JFK SPACE CTR  FAIR      73  70  92 CALM      30.07R                  
TITUSVILLE     SUNNY     73  72  94 CALM      30.08R                  
CAPE CANAVERAL FAIR      75  61  60 SE3       30.06R                  
PATRICK AFB    FAIR      77  71  84 CALM      30.07R                  
MELBOURNE      FAIR      76  69  79 CALM      30.07R                  
VERO BEACH     FAIR      75  68  78 NE3       30.06R                  
FT PIERCE      FAIR      74  66  76 CALM      30.06R                  
STUART         MOSUNNY   75  68  78 CALM      30.07R                  

STATION/POSITION SKY/WX   TEMP    WIND        PRES    WAVE   SWELL
                          AIR SEA DIR/SP/G            HT/PER HT/PER
                          (F)     (DEG/KT/KT) (MB)    (FT/S) (FT/S)
28.5N   80.2W              79     140/  2/  4 1018.8
28.9N   78.5W              78 79  140/  2/  4 1019.1R   2/ 7   2/ 7
TRIDENT PIER               77 82  120/  3/  4 1019.5R
28.4N   80.5W                 80                N/A     2/ 4
27.5N   80.2W                 79                N/A     2/ 4

$$
FLZ050-056-061-142-242-148-248-149-249-151-251-155-255-
160-260-221300-
WEST CENTRAL FLORIDA
  
CITY           SKY/WX    TMP DP  RH WIND       PRES   REMARKS
CRYSTAL RIVER  FAIR      73  68  83 SE3       30.06R                  
INVERNESS      FAIR      73  73 100 CALM      30.07R                  
BROOKSVILLE    FAIR      74  69  85 E3        30.06R                  
CLEARWATER AIR FAIR      77  68  73 SE6       30.04R                  
ST PETE CLEARW FAIR      78  71  79 S8        30.04R                  
TAMPA INTL     FAIR      78  70  76 SE5       30.05R                  
TAMPA EXEC     FAIR      73  70  88 CALM      30.06R                  
PLANT CITY     FAIR      77  72  83 SE5       30.07S                  
MACDILL AFB    FAIR      78  71  79 SE7       30.04R                  
PETER O KNIGHT CLOUDY    77  72  83 SE6       30.05R                  
ST PETERSBURG  NOT AVBL                                               
SARASOTA       FAIR      76  70  82 E7        30.02R                  
VENICE         FAIR      77  72  83 E5        30.04R                  

STATION/POSITION SKY/WX   TEMP    WIND        PRES    WAVE   SWELL
                          AIR SEA DIR/SP/G            HT/PER HT/PER
                          (F)     (DEG/KT/KT) (MB)    (FT/S) (FT/S)
27.3N   84.2W                 80                N/A     1/ 6
CLEARWATER BEACH           77 84  110/  6/  9 1017.2R
MIDDLE TAMPA BAY           77     160/  9/ 11 1017.1R
VENICE                     77 83  120/  4/  5 1017.0R

$$
FLZ066-069-070-075>078-162-262-165-265-221300-
SOUTHWEST FLORIDA AND KEYS
  
CITY           SKY/WX    TMP DP  RH WIND       PRES   REMARKS
PUNTA GORDA    FAIR      75  71  87 CALM      30.05R                  
FT MYERS       FAIR      75  71  87 E3        30.02R                  
SOUTHWEST INTL FAIR      74  70  87 E5        30.03R                  
NAPLES         FAIR      75  70  84 NE6       30.02R                  
MARCO ISLAND   FAIR      74  70  87 NE5       30.03R                  
IMMOKALEE      FAIR      73  70  88 NE5       30.02R                  
MARATHON       FAIR      84  73  69 E6        29.99R                  
KEY WEST NAS   FAIR      84  72  67 E8        29.99R                  
KEY WEST INTL  FAIR      82  72  71 E9        30.00R                  

STATION/POSITION SKY/WX   TEMP    WIND        PRES    WAVE   SWELL
                          AIR SEA DIR/SP/G            HT/PER HT/PER
                          (F)     (DEG/KT/KT) (MB)    (FT/S) (FT/S)
NAPLES                     76 84              1016.7R
DRY TORTUGAS               81     130/ 12/ 14 1015.6R
SAND KEY                   81                 1015.6R
SOMBRERO KEY               81                 1015.2R

$$
FLZ067-068-071>074-168-172>174-221300-
SOUTHEAST FLORIDA 
  
CITY           SKY/WX    TMP DP  RH WIND       PRES   REMARKS
W PALM BEACH   FAIR      79  69  71 CALM      30.05R                  
BOCA RATON     MOSUNNY   81  68  65 CALM      30.03R                  
FT LAUDER-EXEC FAIR      78  68  71 N3        30.03R                  
FT LAUDERDALE  FAIR      80  67  64 CALM      30.02R                  
POMPANO BEACH  FAIR      81  66  60 E3        30.03R                  
PEMBROKE PINES FAIR      78  67  68 CALM      30.04R                  
OPA LOCKA      FAIR      79  68  69 NE5       30.03R                  
MIAMI          FAIR      81  68  64 CALM      30.03R                  
WEST KENDALL   FAIR      79  68  69 NE3       30.02R                  
HOMESTEAD      FAIR      78  69  73 NE5       30.01R                  

STATION/POSITION SKY/WX   TEMP    WIND        PRES    WAVE   SWELL
                          AIR SEA DIR/SP/G            HT/PER HT/PER
                          (F)     (DEG/KT/KT) (MB)    (FT/S) (FT/S)
PORT EVERGLADES            81      70/  4/  6 1016.9
VIRGINIA KEY               81 85  110/  3/  5 1016.1R
LAKE WORTH                 79 81              1018.2R
SETTLEMENT POINT           78      70/  7/  8 1017.7R

$$